Location: Moscow
(44.4414°N, 72.7154°W)
Time: 22:57:02
(UTC+00:00)

Explorer 11/Cluster Stage 4 - Pass Details

Date: 17 December 2025
Orbit: 463 x 1179 km, 28.8° (Epoch: 23 January)

Event Time Altitude Azimuth Distance (km) Brightness Sun altitude
Rises 01:22:42 0° 251° (WSW) 3,974 10.8 -43.6°
Reaches altitude 10° 01:26:36 10° 234° (SW) 2,924 9.8 -44.3°
Enters shadow 01:27:51 13° 226° (SW) 2,654 9.5 -44.5°
